Sidney, NE

9:39 AM MST on December 05, 2016 (GMT -0700)
Sidney Municipal

Weather History for KSNY - February, 2013

Change the Weather History Date:

Tuesday, February 26, 2013

  Actual Average Record
Temperature  
Mean Temperature 22 °F 35 °F  
Max Temperature 37 °F 48 °F 74 °F (1995)
Min Temperature 7 °F 21 °F -14 °F (2014)
Degree Days  
Heating Degree Days 43 30  
Month to date heating degree days 953 865  
Since 1 July heating degree days 4656 4522  
Cooling Degree Days 0 0  
Month to date cooling degree days 0 0  
Year to date cooling degree days 0 0  
Moisture  
Dew Point 19 °F    
Average Humidity 66    
Maximum Humidity 85    
Minimum Humidity 47    
Precipitation  
Precipitation 0.00 in 0.02 in 0.06 in (1978)
Month to date precipitation 0.15 0.29  
Year to date precipitation 0.32 0.49  
Sea Level Pressure  
Sea Level Pressure 29.97 in    
Wind  
Wind Speed 16 mph (NNW)    
Max Wind Speed 26 mph    
Max Gust Speed 31 mph    
Visibility 10 miles    
Events      
T = Trace of Precipitation, MM = Missing Value Source: NWS Daily Summary

Daily Weather History Graph

Daily Weather History Graph

Search for Another Location

Airport or City:

Trip Planner

Search our weather history database for the weather conditions in past years. The results will help you decide how hot, cold, wet, or windy it might be!

Date:

Astronomy

Feb. 26, 2013 Rise Set
Actual Time 6:30 AM MST 5:39 PM MST
Civil Twilight 6:02 AM MST 6:07 PM MST
Nautical Twilight 5:30 AM MST 6:39 PM MST
Astronomical Twilight 4:58 AM MST 7:11 PM MST
Moon 7:00 PM MST (2/26) 6:33 AM MST (2/26)
Length of Visible Light 12h 04m
Length of Day
11h 09m
Full, 99% of the Moon is Illuminated
Feb 26
Full
Mar 4
Last Quarter
Mar 11
New
Mar 19
First Quarter
Mar 27
Full

Hourly Weather History & Observations

Time (MST) Temp. Windchill Dew Point Humidity Pressure Visibility Wind Dir Wind Speed Gust Speed Precip Events Conditions
12:53 AM 12.0 °F -0.4 °F 7.0 °F 80% 29.95 in 10.0 mi West 9.2 mph - N/A   Clear
1:53 AM 10.0 °F 0.4 °F 5.0 °F 80% 29.94 in 10.0 mi West 5.8 mph - N/A   Clear
2:53 AM 9.0 °F -3.2 °F 3.0 °F 77% 29.93 in 10.0 mi West 8.1 mph - N/A   Clear
3:53 AM 12.0 °F -1.3 °F 5.0 °F 73% 29.91 in 10.0 mi West 10.4 mph - N/A   Clear
4:53 AM 15.1 °F 0.5 °F 6.1 °F 68% 29.89 in 10.0 mi West 13.8 mph - N/A   Clear
5:53 AM 18.0 °F 3.1 °F 9.0 °F 68% 29.92 in 10.0 mi West 16.1 mph - N/A   Clear
6:53 AM 19.0 °F 7.5 °F 12.0 °F 74% 29.94 in 10.0 mi NW 10.4 mph - N/A   Clear
7:53 AM 24.1 °F 13.7 °F 17.1 °F 75% 29.94 in 10.0 mi NW 10.4 mph - N/A   Clear
8:53 AM 30.0 °F 18.7 °F 21.0 °F 69% 29.92 in 10.0 mi NNW 16.1 mph - N/A   Clear
9:53 AM 32.0 °F 20.1 °F 21.9 °F 66% 29.90 in 10.0 mi NW 19.6 mph - N/A   Clear
10:53 AM 32.0 °F 18.9 °F 21.9 °F 66% 29.93 in 10.0 mi NNW 24.2 mph - N/A   Clear
11:53 AM 33.1 °F 21.2 °F 23.0 °F 66% 29.92 in 10.0 mi North 20.7 mph - N/A   Clear
12:53 PM 35.1 °F 23.8 °F 23.0 °F 61% 29.91 in 10.0 mi North 20.7 mph - N/A   Clear
1:53 PM 35.1 °F 25.2 °F 19.9 °F 54% 29.93 in 10.0 mi NNE 16.1 mph 24.2 mph N/A   Clear
2:53 PM 36.0 °F 28.0 °F 18.0 °F 48% 29.94 in 10.0 mi NNE 11.5 mph - N/A   Clear
3:53 PM 37.0 °F 27.0 °F 23.0 °F 57% 29.94 in 10.0 mi North 18.4 mph 24.2 mph N/A   Scattered Clouds
4:53 PM 33.1 °F 23.0 °F 21.9 °F 64% 29.97 in 10.0 mi North 15.0 mph - N/A   Clear
5:53 PM 33.1 °F 22.2 °F 27.0 °F 78% 30.00 in 10.0 mi NNW 17.3 mph - N/A   Overcast
6:53 PM 30.9 °F 18.7 °F 27.0 °F 85% 30.04 in 10.0 mi NNW 19.6 mph 27.6 mph N/A   Partly Cloudy
7:53 PM 30.0 °F 16.9 °F 26.1 °F 85% 30.07 in 10.0 mi NNW 21.9 mph - N/A   Overcast
8:53 PM 28.9 °F 16.9 °F 25.0 °F 85% 30.08 in 10.0 mi NNW 17.3 mph - N/A   Clear
9:28 PM 30.2 °F 18.5 °F 24.8 °F 80% 30.01 in 10.0 mi North 17.3 mph - N/A   Mostly Cloudy
9:53 PM 30.0 °F 19.1 °F 26.1 °F 85% 30.09 in 10.0 mi NNW 15.0 mph - N/A   Overcast
10:53 PM 30.0 °F 17.5 °F 26.1 °F 85% 30.11 in 10.0 mi NNW 19.6 mph - N/A   Overcast
11:53 PM 30.0 °F 17.2 °F 25.0 °F 82% 30.12 in 10.0 mi NNW 20.7 mph 27.6 mph N/A   Overcast